This is the latest recevied weather packets stored in our database for station/object KC3BHK-2. If no packets are shown the sender has not sent any weather packets the latest 1 day(s).
| Time | Temp. | Humidity | Pressure | Rain* | Wind** | Luminosity | Snow |
|---|---|---|---|---|---|---|---|
| 1778031122 | 22.22° C | - | - | 0 mm | 2.68 m/s, 141° | - | - |
| 1778030817 | 22.22° C | - | - | 0 mm | 2.24 m/s, 153° | - | - |
| 1778030512 | 22.78° C | - | - | 0 mm | 3.13 m/s, 155° | - | - |
| 1778030208 | 22.78° C | - | - | 0 mm | 3.13 m/s, 143° | - | - |
| 1778029903 | 22.78° C | - | - | 0 mm | 3.13 m/s, 149° | - | - |
| 1778029595 | 22.78° C | - | - | 0 mm | 3.13 m/s, 153° | - | - |
| 1778029290 | 22.78° C | - | - | 0 mm | 1.79 m/s, 167° | - | - |
| 1778028985 | 23.33° C | - | - | 0 mm | 2.68 m/s, 193° | - | - |
| 1778028680 | 23.89° C | - | - | 0 mm | 3.13 m/s, 181° | - | - |
| 1778028376 | 23.89° C | - | - | 0 mm | 3.58 m/s, 160° | - | - |
| 1778028071 | 23.33° C | - | - | 0 mm | 2.68 m/s, 122° | - | - |
| 1778027763 | 23.33° C | - | - | 0 mm | 4.02 m/s, 187° | - | - |
| 1778027459 | 24.44° C | - | - | 0 mm | 4.47 m/s, 193° | - | - |
| 1778027154 | 23.89° C | - | - | 0 mm | 3.13 m/s, 172° | - | - |
| 1778026849 | 24.44° C | - | - | 0 mm | 4.02 m/s, 166° | - | - |
| 1778026545 | 24.44° C | - | - | 0 mm | 3.13 m/s, 170° | - | - |
| 1778026240 | 25° C | - | - | 0 mm | 2.24 m/s, 180° | - | - |
| 1778025933 | 24.44° C | - | - | 0 mm | 4.92 m/s, 174° | - | - |
| 1778025628 | 23.89° C | - | - | 0 mm | 4.47 m/s, 159° | - | - |
| 1778025323 | 24.44° C | - | - | 0 mm | 6.26 m/s, 163° | - | - |
| 1778025019 | 25° C | - | - | 0 mm | 3.58 m/s, 158° | - | - |
| 1778024714 | 25° C | - | - | 0 mm | 3.13 m/s, 156° | - | - |
| 1778024409 | 25° C | - | - | 0 mm | 4.92 m/s, 150° | - | - |
| 1778024101 | 25.56° C | - | - | 0 mm | 4.47 m/s, 177° | - | - |
| 1778023796 | 25.56° C | - | - | 0 mm | 3.58 m/s, 176° | - | - |
* Rain latest hour (hover to see other rain measurements)
** Current wind speed in m/s (hover to see current wind gust speed)